This is the latest recevied weather packets stored in our database for station/object VR2OT-10. If no packets are shown the sender has not sent any weather packets the latest 10 day(s).
| Time | Temp. | Humidity | Pressure | Rain* | Wind** | Luminosity | Snow |
|---|---|---|---|---|---|---|---|
| 1787771433 | 26.11° C | 95% | 1003 hPa | - | 0.45 m/s, 90° | - | - |
| 1787770532 | 26.11° C | 95% | 1003 hPa | - | 0.45 m/s, 90° | - | - |
| 1787769634 | 25.56° C | 95% | 1003.2 hPa | - | 0.89 m/s, 0° | - | - |
| 1787767831 | 25.56° C | 95% | 1003.3 hPa | - | 1.79 m/s, 315° | - | - |
| 1787766932 | 26.11° C | 94% | 1003.8 hPa | - | 4.02 m/s, 315° | - | - |
| 1787766034 | 26.67° C | 92% | 1004.1 hPa | - | 3.13 m/s, 315° | - | - |
| 1787765132 | 26.67° C | 96% | 1004.2 hPa | - | 1.34 m/s, 315° | - | - |
| 1787764233 | 26.67° C | 96% | 1004 hPa | - | 0.45 m/s, 0° | - | - |
| 1787763333 | 26.11° C | 93% | 1004.2 hPa | - | 1.34 m/s, 90° | - | - |
| 1787762432 | 25.56° C | 91% | 1004.2 hPa | - | 1.79 m/s, 135° | - | - |
| 1787757933 | 26.67° C | 94% | 1004.7 hPa | - | 2.68 m/s, 90° | - | - |
| 1787757032 | 26.67° C | 93% | 1004.6 hPa | - | 2.68 m/s, 90° | - | - |
| 1787754332 | 26.11° C | 92% | 1004.7 hPa | - | 2.24 m/s, 90° | - | - |
| 1787753433 | 26.11° C | 93% | 1004.7 hPa | - | 2.68 m/s, 90° | - | - |
| 1787752533 | 26.67° C | 94% | 1004.7 hPa | - | 2.24 m/s, 90° | - | - |
| 1787751632 | 26.67° C | 94% | 1004.6 hPa | - | 2.68 m/s, 90° | - | - |
| 1787750733 | 26.67° C | 93% | 1004.2 hPa | - | 2.68 m/s, 90° | - | - |
| 1787747133 | 25.56° C | 93% | 1003.7 hPa | - | 1.34 m/s, 315° | - | - |
| 1787746232 | 25.56° C | 93% | 1003.7 hPa | - | 0.45 m/s, 0° | - | - |
| 1787745333 | 25.56° C | 92% | 1003.2 hPa | - | 1.34 m/s, 45° | - | - |
| 1787744433 | 25° C | 91% | 1003.2 hPa | - | 2.68 m/s, 135° | - | - |
| 1787743532 | 26.67° C | 86% | 1003.3 hPa | - | 4.92 m/s, 135° | - | - |
| 1787742634 | 27.22° C | 86% | 1002.6 hPa | - | 4.47 m/s, 135° | - | - |
| 1787741733 | 27.22° C | 86% | 1002.2 hPa | - | 3.58 m/s, 135° | - | - |
| 1787740831 | 27.22° C | 85% | 1002.2 hPa | - | 2.68 m/s, 135° | - | - |
* Rain since midnight (hover to see other rain measurements)
** Current wind speed in m/s (hover to see current wind gust speed)